Regional Weather Roundup
Issued by NWS

Home | Current Version | Previous Version | Text Only | Print | Product List | Glossary Off
Versions: 1 2 3 4 5 6 7 8 9 10 11 12 13 14 15 16 17 18 19 20 21 22 23 24 25 26 27 28 29 30 31 32 33 34 35 36 37 38 39 40 41 42 43 44 45 46 47 48 49 50

000
ASUS43 KBIS 080610
RWRND

NORTH DAKOTA REGIONAL WEATHER ROUNDUP
NATIONAL WEATHER SERVICE BISMARCK ND
1200 AM CST THU DEC 08 2016

NOTE: "FAIR" INDICATES FEW OR NO CLOUDS BELOW 12,000 FEET WITH NO
SIGNIFICANT WEATHER AND/OR OBSTRUCTIONS TO VISIBILITY.


NDZ001>003-009>011-017-080700-
NORTHWEST NORTH DAKOTA

CITY           SKY/WX    TMP DP  RH WIND       PRES   REMARKS
WILLISTON      CLOUDY     0  -7  72 W16       30.60S WCI -20
6HR MIN TEMP:   0; 6HR MAX TEMP:   3; 6HR PCP: TRACE;

MINOT          LGT SNOW   6   1  80 W28       30.46R WCI -17
MINOT AFB      PTCLDY     4  -1  80 NW26      30.46R HAZE    WCI -19
$$

NDZ018>021-031>035-040>046-080700-
SOUTHWEST NORTH DAKOTA

CITY           SKY/WX    TMP DP  RH WIND       PRES   REMARKS
BISMARCK       LGT SNOW   5   1  83 NW17      30.50R FOG     WCI -14
6HR MIN TEMP:   4; 6HR MAX TEMP:   5; 6HR PCP:  0.01;

DICKINSON      CLEAR     -2  -8  76 NW15      30.48R WCI -22
GARRISON         N/A      4   0  83 NW25G32   30.47R WCI -19
6HR MIN TEMP:   3; 6HR MAX TEMP:   4; 6HR PCP:  0.01;

HETTINGER ARPT CLEAR     -1  -7  75 NW17      30.50R WCI -22
$$

NDZ004>008-012>016-024-026-027-054-080700-
NORTHEAST NORTH DAKOTA

CITY           SKY/WX    TMP DP  RH WIND       PRES   REMARKS
GRAND FORKS    LGT SNOW  19  15  84 NW23      30.27R FOG     WCI   2
GRND FRKS AFB  FLURRIES  18  13  80 N20G25    30.28R WCI   1
DEVILS LAKE    LGT SNOW  12   8  84 NW20G30   30.34R FOG     WCI  -6
$$

NDZ022-023-025-028>030-036>039-047>053-080700-
SOUTHEAST NORTH DAKOTA

CITY           SKY/WX    TMP DP  RH WIND       PRES   REMARKS
FARGO          LGT SNOW  18  12  77 NW24G36   30.25R WCI   0
6HR MIN TEMP:  15; 6HR MAX TEMP:  19; 6HR PCP: TRACE;

JAMESTOWN      CLOUDY     8   4  83 NW29G37   30.34R BLWGSNOWWCI -15
$$





USA.gov is the U.S. government's official web portal to all federal, state and local government web resources and services.